Tracking 27380 objects as of 6-Jun-2023
HD Live streaming from Space Station
objects crossing your sky now

OPS 4682 DEB

Track OPS 4682 DEB now!
10-day predictions


NORAD ID: 38444
Int'l Code: 1965-027EZ
Perigee: 1,267.5 km
Apogee: 1,305.7 km
Inclination: 90.2 °
Period: 111.1 minutes
Semi major axis: 7657 km
RCS: 0.0103 m2 (small)
Launch date: April 3, 1965
Source: United States (US)
Launch site: AIR FORCE WESTERN TEST RANGE (AFWTR)

Note: This is SATELLITE DEBRIS
Your satellite tracking list
Your tracking list is empty




NASA's NSSDC Master Catalog

Two Line Element Set (TLE):
1 38444U 65027EZ  23156.50437117  .00000508  00000-0  17685-2 0  9990
2 38444  90.2489 345.1232 0024943 213.7114 146.2420 12.95584858490959
Source of the keplerian elements: AFSPC